Year,Month,Day,Hour,Minute,Value (Times are PST for temperature in C)
2017,06,27,00,00,15.70
2017,06,27,00,01,15.70
2017,06,27,00,02,15.70
2017,06,27,00,03,15.70
2017,06,27,00,04,15.70
2017,06,27,00,05,15.70
2017,06,27,00,06,15.70
2017,06,27,00,07,15.70
2017,06,27,00,08,15.70
2017,06,27,00,09,15.70
2017,06,27,00,10,15.70
2017,06,27,00,11,15.70
2017,06,27,00,12,15.70
2017,06,27,00,13,15.70
2017,06,27,00,14,15.70
2017,06,27,00,15,15.70
2017,06,27,00,16,15.70
2017,06,27,00,17,15.70
2017,06,27,00,18,15.80
2017,06,27,00,19,15.80
2017,06,27,00,20,15.80
2017,06,27,00,21,15.80
2017,06,27,00,22,15.80
2017,06,27,00,23,15.80
2017,06,27,00,24,15.80
2017,06,27,00,25,15.80
2017,06,27,00,26,15.80
2017,06,27,00,27,15.80
2017,06,27,00,28,15.80
2017,06,27,00,29,15.80
2017,06,27,00,30,15.80
2017,06,27,00,31,15.80
2017,06,27,00,32,15.80
2017,06,27,00,33,15.80
2017,06,27,00,34,15.80
2017,06,27,00,35,15.80
2017,06,27,00,36,15.80
2017,06,27,00,37,15.80
2017,06,27,00,38,15.70
2017,06,27,00,39,15.70
2017,06,27,00,40,15.70
2017,06,27,00,41,15.70
2017,06,27,00,42,15.70
2017,06,27,00,43,15.70
2017,06,27,00,44,15.70
2017,06,27,00,45,15.70
2017,06,27,00,46,15.70
2017,06,27,00,47,15.70
2017,06,27,00,48,15.70
2017,06,27,00,49,15.60
2017,06,27,00,50,15.60
2017,06,27,00,51,15.60
2017,06,27,00,52,15.60
2017,06,27,00,53,15.60
2017,06,27,00,54,15.60
2017,06,27,00,55,15.60
2017,06,27,00,56,15.60
2017,06,27,00,57,15.60
2017,06,27,00,58,15.60
2017,06,27,00,59,15.60
2017,06,27,01,00,15.50
2017,06,27,01,01,15.50
2017,06,27,01,02,15.50
2017,06,27,01,03,15.50
2017,06,27,01,04,15.40
2017,06,27,01,05,15.40
2017,06,27,01,06,15.40
2017,06,27,01,07,15.40
2017,06,27,01,08,15.40
2017,06,27,01,09,15.30
2017,06,27,01,10,15.30
2017,06,27,01,11,15.30
2017,06,27,01,12,15.30
2017,06,27,01,13,15.30
2017,06,27,01,14,15.30
2017,06,27,01,15,15.30
2017,06,27,01,16,15.20
2017,06,27,01,17,15.20
2017,06,27,01,18,15.20
2017,06,27,01,19,15.20
2017,06,27,01,20,15.20
2017,06,27,01,21,15.20
2017,06,27,01,22,15.20
2017,06,27,01,23,15.20
2017,06,27,01,24,15.20
2017,06,27,01,25,15.20
2017,06,27,01,26,15.20
2017,06,27,01,27,15.20
2017,06,27,01,28,15.20
2017,06,27,01,29,15.20
2017,06,27,01,30,15.20
2017,06,27,01,31,15.20
2017,06,27,01,32,15.20
2017,06,27,01,33,15.20
2017,06,27,01,34,15.20
2017,06,27,01,35,15.10
2017,06,27,01,36,15.10
2017,06,27,01,37,15.10
2017,06,27,01,38,15.10
2017,06,27,01,39,15.10
2017,06,27,01,40,15.10
2017,06,27,01,41,15.10
2017,06,27,01,42,15.10
2017,06,27,01,43,15.10
2017,06,27,01,44,15.10
2017,06,27,01,45,15.10
2017,06,27,01,46,15.10
2017,06,27,01,47,15.10
2017,06,27,01,48,15.10
2017,06,27,01,49,15.10
2017,06,27,01,50,15.00
2017,06,27,01,51,15.00
2017,06,27,01,52,15.00
2017,06,27,01,53,15.00
2017,06,27,01,54,14.90
2017,06,27,01,55,14.90
2017,06,27,01,56,14.90
2017,06,27,01,57,14.90
2017,06,27,01,58,14.80
2017,06,27,01,59,14.80
2017,06,27,02,00,14.80
2017,06,27,02,01,14.80
2017,06,27,02,02,14.70
2017,06,27,02,03,14.70
2017,06,27,02,04,14.70
2017,06,27,02,05,14.70
2017,06,27,02,06,14.70
2017,06,27,02,07,14.70
2017,06,27,02,08,14.70
2017,06,27,02,09,14.70
2017,06,27,02,10,14.70
2017,06,27,02,11,14.70
2017,06,27,02,12,14.70
2017,06,27,02,13,14.60
2017,06,27,02,14,14.60
2017,06,27,02,15,14.60
2017,06,27,02,16,14.60
2017,06,27,02,17,14.60
2017,06,27,02,18,14.60
2017,06,27,02,19,14.50
2017,06,27,02,20,14.50
2017,06,27,02,21,14.50
2017,06,27,02,22,14.50
2017,06,27,02,23,14.50
2017,06,27,02,24,14.40
2017,06,27,02,25,14.40
2017,06,27,02,26,14.40
2017,06,27,02,27,14.40
2017,06,27,02,28,14.40
2017,06,27,02,29,14.30
2017,06,27,02,30,14.30
2017,06,27,02,31,14.30
2017,06,27,02,32,14.30
2017,06,27,02,33,14.30
2017,06,27,02,34,14.20
2017,06,27,02,35,14.20
2017,06,27,02,36,14.20
2017,06,27,02,37,14.20
2017,06,27,02,38,14.20
2017,06,27,02,39,14.20
2017,06,27,02,40,14.20
2017,06,27,02,41,14.10
2017,06,27,02,42,14.10
2017,06,27,02,43,14.10
2017,06,27,02,44,14.10
2017,06,27,02,45,14.00
2017,06,27,02,46,14.00
2017,06,27,02,47,14.00
2017,06,27,02,48,14.00
2017,06,27,02,49,13.90
2017,06,27,02,50,13.90
2017,06,27,02,51,13.90
2017,06,27,02,52,13.90
2017,06,27,02,53,13.90
2017,06,27,02,54,13.90
2017,06,27,02,55,13.80
2017,06,27,02,56,13.80
2017,06,27,02,57,13.80
2017,06,27,02,58,13.80
2017,06,27,02,59,13.80
2017,06,27,03,00,13.70
2017,06,27,03,01,13.70
2017,06,27,03,02,13.70
2017,06,27,03,03,13.70
2017,06,27,03,04,13.70
2017,06,27,03,05,13.70
2017,06,27,03,06,13.60
2017,06,27,03,07,13.60
2017,06,27,03,08,13.60
2017,06,27,03,09,13.60
2017,06,27,03,10,13.50
2017,06,27,03,11,13.50
2017,06,27,03,12,13.50
2017,06,27,03,13,13.40
2017,06,27,03,14,13.40
2017,06,27,03,15,13.40
2017,06,27,03,16,13.40
2017,06,27,03,17,13.40
2017,06,27,03,18,13.40
2017,06,27,03,19,13.40
2017,06,27,03,20,13.30
2017,06,27,03,21,13.30
2017,06,27,03,22,13.30
2017,06,27,03,23,13.30
2017,06,27,03,24,13.20
2017,06,27,03,25,13.20
2017,06,27,03,26,13.20
2017,06,27,03,27,13.20
2017,06,27,03,28,13.10
2017,06,27,03,29,13.10
2017,06,27,03,30,13.10
2017,06,27,03,31,13.10
2017,06,27,03,32,13.10
2017,06,27,03,33,13.10
2017,06,27,03,34,13.10
2017,06,27,03,35,13.10
2017,06,27,03,36,13.10
2017,06,27,03,37,13.10
2017,06,27,03,38,13.10
2017,06,27,03,39,13.10
2017,06,27,03,40,13.00
2017,06,27,03,41,13.00
2017,06,27,03,42,13.00
2017,06,27,03,43,12.90
2017,06,27,03,44,12.90
2017,06,27,03,45,12.90
2017,06,27,03,46,12.90
2017,06,27,03,47,12.90
2017,06,27,03,48,12.80
2017,06,27,03,49,12.80
2017,06,27,03,50,12.80
2017,06,27,03,51,12.80
2017,06,27,03,52,12.70
2017,06,27,03,53,12.70
2017,06,27,03,54,12.70
2017,06,27,03,55,12.70
2017,06,27,03,56,12.70
2017,06,27,03,57,12.70
2017,06,27,03,58,12.60
2017,06,27,03,59,12.60
2017,06,27,04,00,12.60
2017,06,27,04,01,12.60
2017,06,27,04,02,12.50
2017,06,27,04,03,12.50
2017,06,27,04,04,12.50
2017,06,27,04,05,12.40
2017,06,27,04,06,12.40
2017,06,27,04,07,12.40
2017,06,27,04,08,12.40
2017,06,27,04,09,12.40
2017,06,27,04,10,12.30
2017,06,27,04,11,12.30
2017,06,27,04,12,12.30
2017,06,27,04,13,12.30
2017,06,27,04,14,12.30
2017,06,27,04,15,12.20
2017,06,27,04,16,12.20
2017,06,27,04,17,12.20
2017,06,27,04,18,12.20
2017,06,27,04,19,12.20
2017,06,27,04,20,12.20
2017,06,27,04,21,12.20
2017,06,27,04,22,12.10
2017,06,27,04,23,12.10
2017,06,27,04,24,12.10
2017,06,27,04,25,12.10
2017,06,27,04,26,12.10
2017,06,27,04,27,12.10
2017,06,27,04,28,12.00
2017,06,27,04,29,12.00
2017,06,27,04,30,12.00
2017,06,27,04,31,12.00
2017,06,27,04,32,12.00
2017,06,27,04,33,12.00
2017,06,27,04,34,11.90
2017,06,27,04,35,11.90
2017,06,27,04,36,11.80
2017,06,27,04,37,11.70
2017,06,27,04,38,11.70
2017,06,27,04,39,11.60
2017,06,27,04,40,11.50
2017,06,27,04,41,11.40
2017,06,27,04,42,11.40
2017,06,27,04,43,11.30
2017,06,27,04,44,11.30
2017,06,27,04,45,11.20
2017,06,27,04,46,11.20
2017,06,27,04,47,11.10
2017,06,27,04,48,11.10
2017,06,27,04,49,11.00
2017,06,27,04,50,11.00
2017,06,27,04,51,10.90
2017,06,27,04,52,10.90
2017,06,27,04,53,10.90
2017,06,27,04,54,10.90
2017,06,27,04,55,10.80
2017,06,27,04,56,10.80
2017,06,27,04,57,10.80
2017,06,27,04,58,10.70
2017,06,27,04,59,10.70
2017,06,27,05,00,10.70
2017,06,27,05,01,10.70
2017,06,27,05,02,10.70
2017,06,27,05,03,10.70
2017,06,27,05,04,10.70
2017,06,27,05,05,10.70
2017,06,27,05,06,10.70
2017,06,27,05,07,10.70
2017,06,27,05,08,10.80
2017,06,27,05,09,10.80
2017,06,27,05,10,10.80
2017,06,27,05,11,10.80
2017,06,27,05,12,10.80
2017,06,27,05,13,10.90
2017,06,27,05,14,10.90
2017,06,27,05,15,10.90
2017,06,27,05,16,10.90
2017,06,27,05,17,10.90
2017,06,27,05,18,10.90
2017,06,27,05,19,10.90
2017,06,27,05,20,10.90
2017,06,27,05,21,10.90
2017,06,27,05,22,10.90
2017,06,27,05,23,10.80
2017,06,27,05,24,10.90
2017,06,27,05,25,10.90
2017,06,27,05,26,10.90
2017,06,27,05,27,11.00
2017,06,27,05,28,11.00
2017,06,27,05,29,11.10
2017,06,27,05,30,11.10
2017,06,27,05,31,11.20
2017,06,27,05,32,11.20
2017,06,27,05,33,11.20
2017,06,27,05,34,11.30
2017,06,27,05,35,11.30
2017,06,27,05,36,11.40
2017,06,27,05,37,11.40
2017,06,27,05,38,11.40
2017,06,27,05,39,11.50
2017,06,27,05,40,11.50
2017,06,27,05,41,11.50
2017,06,27,05,42,11.60
2017,06,27,05,43,11.60
2017,06,27,05,44,11.60
2017,06,27,05,45,11.60
2017,06,27,05,46,11.60
2017,06,27,05,47,11.60
2017,06,27,05,48,11.60
2017,06,27,05,49,11.60
2017,06,27,05,50,11.60
2017,06,27,05,51,11.60
2017,06,27,05,52,11.60
2017,06,27,05,53,11.60
2017,06,27,05,54,11.60
2017,06,27,05,55,11.60
2017,06,27,05,56,11.60
2017,06,27,05,57,11.60
2017,06,27,05,58,11.60
2017,06,27,05,59,11.60
2017,06,27,06,00,11.60
2017,06,27,06,01,11.60
2017,06,27,06,02,11.60
2017,06,27,06,03,11.60
2017,06,27,06,04,11.60
2017,06,27,06,05,11.60
2017,06,27,06,06,11.60
2017,06,27,06,07,11.60
2017,06,27,06,08,11.70
2017,06,27,06,09,11.70
2017,06,27,06,10,11.70
2017,06,27,06,11,11.70
2017,06,27,06,12,11.80
2017,06,27,06,13,11.80
2017,06,27,06,14,11.80
2017,06,27,06,15,11.90
2017,06,27,06,16,11.90
2017,06,27,06,17,11.90
2017,06,27,06,18,12.00
2017,06,27,06,19,12.00
2017,06,27,06,20,12.00
2017,06,27,06,21,12.10
2017,06,27,06,22,12.10
2017,06,27,06,23,12.10
2017,06,27,06,24,12.20
2017,06,27,06,25,12.20
2017,06,27,06,26,12.30
2017,06,27,06,27,12.30
2017,06,27,06,28,12.30
2017,06,27,06,29,12.30
2017,06,27,06,30,12.40
2017,06,27,06,31,12.40
2017,06,27,06,32,12.40
2017,06,27,06,33,12.50
2017,06,27,06,34,12.50
2017,06,27,06,35,12.60
2017,06,27,06,36,12.60
2017,06,27,06,37,12.60
2017,06,27,06,38,12.70
2017,06,27,06,39,12.70
2017,06,27,06,40,12.70
2017,06,27,06,41,12.80
2017,06,27,06,42,12.80
2017,06,27,06,43,12.90
2017,06,27,06,44,12.90
2017,06,27,06,45,13.00
2017,06,27,06,46,13.00
2017,06,27,06,47,13.10
2017,06,27,06,48,13.10
2017,06,27,06,49,13.20
2017,06,27,06,50,13.20
2017,06,27,06,51,13.30
2017,06,27,06,52,13.30
2017,06,27,06,53,13.40
2017,06,27,06,54,13.40
2017,06,27,06,55,13.50
2017,06,27,06,56,13.60
2017,06,27,06,57,13.60
2017,06,27,06,58,13.70
2017,06,27,06,59,13.70
2017,06,27,07,00,13.70
2017,06,27,07,01,13.80
2017,06,27,07,02,13.80
2017,06,27,07,03,13.90
2017,06,27,07,04,13.90
2017,06,27,07,05,13.90
2017,06,27,07,06,14.00
2017,06,27,07,07,14.00
2017,06,27,07,08,14.00
2017,06,27,07,09,14.10
2017,06,27,07,10,14.10
2017,06,27,07,11,14.10
2017,06,27,07,12,14.10
2017,06,27,07,13,14.10
2017,06,27,07,14,14.20
2017,06,27,07,15,14.20
2017,06,27,07,16,14.20
2017,06,27,07,17,14.20
2017,06,27,07,18,14.20
2017,06,27,07,19,14.30
2017,06,27,07,20,14.30
2017,06,27,07,21,14.30
2017,06,27,07,22,14.30
2017,06,27,07,23,14.30
2017,06,27,07,24,14.30
2017,06,27,07,25,14.40
2017,06,27,07,26,14.40
2017,06,27,07,27,14.40
2017,06,27,07,28,14.40
2017,06,27,07,29,14.50
2017,06,27,07,30,14.50
2017,06,27,07,31,14.50
2017,06,27,07,32,14.50
2017,06,27,07,33,14.60
2017,06,27,07,34,14.60
2017,06,27,07,35,14.60
2017,06,27,07,36,14.60
2017,06,27,07,37,14.60
2017,06,27,07,38,14.60
2017,06,27,07,39,14.60
2017,06,27,07,40,14.70
2017,06,27,07,41,14.70
2017,06,27,07,42,14.70
2017,06,27,07,43,14.70
2017,06,27,07,44,14.70
2017,06,27,07,45,14.70
2017,06,27,07,46,14.70
2017,06,27,07,47,14.70
2017,06,27,07,48,14.80
2017,06,27,07,49,14.80
2017,06,27,07,50,14.80
2017,06,27,07,51,14.90
2017,06,27,07,52,14.90
2017,06,27,07,53,14.90
2017,06,27,07,54,14.90
2017,06,27,07,55,15.00
2017,06,27,07,56,15.00
2017,06,27,07,57,15.00
2017,06,27,07,58,15.00
2017,06,27,07,59,14.90
2017,06,27,08,00,14.90
2017,06,27,08,01,14.90
2017,06,27,08,02,14.90
2017,06,27,08,03,14.80
2017,06,27,08,04,14.80
2017,06,27,08,05,14.70
2017,06,27,08,06,14.70
2017,06,27,08,07,14.70
2017,06,27,08,08,14.80
2017,06,27,08,09,14.80
2017,06,27,08,10,14.80
2017,06,27,08,11,14.80
2017,06,27,08,12,14.80
2017,06,27,08,13,14.80
2017,06,27,08,14,14.80
2017,06,27,08,15,14.80
2017,06,27,08,16,14.80
2017,06,27,08,17,14.80
2017,06,27,08,18,14.80
2017,06,27,08,19,14.80
2017,06,27,08,20,14.80
2017,06,27,08,21,14.90
2017,06,27,08,22,14.90
2017,06,27,08,23,14.90
2017,06,27,08,24,14.90
2017,06,27,08,25,14.90
2017,06,27,08,26,14.90
2017,06,27,08,27,14.90
2017,06,27,08,28,14.90
2017,06,27,08,29,14.80
2017,06,27,08,30,14.80
2017,06,27,08,31,14.80
2017,06,27,08,32,14.80
2017,06,27,08,33,14.80
2017,06,27,08,34,14.80
2017,06,27,08,35,14.80
2017,06,27,08,36,14.80
2017,06,27,08,37,14.80
2017,06,27,08,38,14.80
2017,06,27,08,39,14.90
2017,06,27,08,40,14.90
2017,06,27,08,41,14.90
2017,06,27,08,42,14.90
2017,06,27,08,43,14.90
2017,06,27,08,44,14.90
2017,06,27,08,45,14.90
2017,06,27,08,46,14.90
2017,06,27,08,47,14.90
2017,06,27,08,48,14.80
2017,06,27,08,49,14.80
2017,06,27,08,50,14.90
2017,06,27,08,51,14.90
2017,06,27,08,52,14.90
2017,06,27,08,53,14.90
2017,06,27,08,54,14.80
2017,06,27,08,55,14.80
2017,06,27,08,56,14.80
2017,06,27,08,57,14.90
2017,06,27,08,58,14.90
2017,06,27,08,59,14.80
2017,06,27,09,00,14.80
2017,06,27,09,01,14.80
2017,06,27,09,02,14.80
2017,06,27,09,03,14.80
2017,06,27,09,04,14.80
2017,06,27,09,05,14.70
2017,06,27,09,06,14.80
2017,06,27,09,07,14.80
2017,06,27,09,08,14.80
2017,06,27,09,09,14.80
2017,06,27,09,10,14.80
2017,06,27,09,11,14.90
2017,06,27,09,12,14.90
2017,06,27,09,13,14.90
2017,06,27,09,14,14.90
2017,06,27,09,15,14.90
2017,06,27,09,16,14.90
2017,06,27,09,17,15.00
2017,06,27,09,18,15.00
2017,06,27,09,19,15.00
2017,06,27,09,20,15.00
2017,06,27,09,21,15.00
2017,06,27,09,22,15.00
2017,06,27,09,23,15.00
2017,06,27,09,24,15.00
2017,06,27,09,25,15.00
2017,06,27,09,26,15.00
2017,06,27,09,27,15.00
2017,06,27,09,28,15.00
2017,06,27,09,29,15.00
2017,06,27,09,30,15.10
2017,06,27,09,31,15.10
2017,06,27,09,32,15.10
2017,06,27,09,33,15.10
2017,06,27,09,34,15.10
2017,06,27,09,35,15.10
2017,06,27,09,36,15.20
2017,06,27,09,37,15.20
2017,06,27,09,38,15.20
2017,06,27,09,39,15.20
2017,06,27,09,40,15.20
2017,06,27,09,41,15.30
2017,06,27,09,42,15.30
2017,06,27,09,43,15.30
2017,06,27,09,44,15.40
2017,06,27,09,45,15.40
2017,06,27,09,46,15.40
2017,06,27,09,47,15.40
2017,06,27,09,48,15.50
2017,06,27,09,49,15.50
2017,06,27,09,50,15.50
2017,06,27,09,51,15.50
2017,06,27,09,52,15.60
2017,06,27,09,53,15.60
2017,06,27,09,54,15.60
2017,06,27,09,55,15.60
2017,06,27,09,56,15.70
2017,06,27,09,57,15.70
2017,06,27,09,58,15.70
2017,06,27,09,59,15.70
2017,06,27,10,00,15.60
2017,06,27,10,01,15.60
2017,06,27,10,02,15.60
2017,06,27,10,03,15.60
2017,06,27,10,04,15.60
2017,06,27,10,05,15.60
2017,06,27,10,06,15.60
2017,06,27,10,07,15.60
2017,06,27,10,08,15.60
2017,06,27,10,09,15.60
2017,06,27,10,10,15.60
2017,06,27,10,11,15.70
2017,06,27,10,12,15.70
2017,06,27,10,13,15.70
2017,06,27,10,14,15.80
2017,06,27,10,15,15.80
2017,06,27,10,16,15.70
2017,06,27,10,17,15.70
2017,06,27,10,18,15.60
2017,06,27,10,19,15.60
2017,06,27,10,20,15.60
2017,06,27,10,21,15.60
2017,06,27,10,22,15.60
2017,06,27,10,23,15.60
2017,06,27,10,24,15.60
2017,06,27,10,25,15.60
2017,06,27,10,26,15.60
2017,06,27,10,27,15.60
2017,06,27,10,28,15.70
2017,06,27,10,29,15.80
2017,06,27,10,30,15.90
2017,06,27,10,31,15.90
2017,06,27,10,32,16.00
2017,06,27,10,33,16.00
2017,06,27,10,34,16.00
2017,06,27,10,35,16.00
2017,06,27,10,36,16.10
2017,06,27,10,37,16.10
2017,06,27,10,38,16.10
2017,06,27,10,39,16.10
2017,06,27,10,40,16.10
2017,06,27,10,41,16.10
2017,06,27,10,42,16.20
2017,06,27,10,43,16.20
2017,06,27,10,44,16.20
2017,06,27,10,45,16.30
2017,06,27,10,46,16.30
2017,06,27,10,47,16.40
2017,06,27,10,48,16.40
2017,06,27,10,49,16.50
2017,06,27,10,50,16.50
2017,06,27,10,51,16.60
2017,06,27,10,52,16.60
2017,06,27,10,53,16.60
2017,06,27,10,54,16.70
2017,06,27,10,55,16.70
2017,06,27,10,56,16.70
2017,06,27,10,57,16.70
2017,06,27,10,58,16.70
2017,06,27,10,59,16.70
2017,06,27,11,00,16.70
2017,06,27,11,01,16.80
2017,06,27,11,02,16.80
2017,06,27,11,03,16.90
2017,06,27,11,04,16.80
2017,06,27,11,05,16.90
2017,06,27,11,06,16.90
2017,06,27,11,07,16.90
2017,06,27,11,08,17.00
2017,06,27,11,09,17.00
2017,06,27,11,10,17.10
2017,06,27,11,11,17.10
2017,06,27,11,12,17.10
2017,06,27,11,13,17.20
2017,06,27,11,14,17.20
2017,06,27,11,15,17.30
2017,06,27,11,16,17.30
2017,06,27,11,17,17.40
2017,06,27,11,18,17.40
2017,06,27,11,19,17.40
2017,06,27,11,20,17.40
2017,06,27,11,21,17.30
2017,06,27,11,22,17.30
2017,06,27,11,23,17.30
2017,06,27,11,24,17.30
2017,06,27,11,25,17.30
2017,06,27,11,26,17.40
2017,06,27,11,27,17.40
2017,06,27,11,28,17.40
2017,06,27,11,29,17.40
2017,06,27,11,30,17.40
2017,06,27,11,31,17.40
2017,06,27,11,32,17.50
2017,06,27,11,33,17.50
2017,06,27,11,34,17.60
2017,06,27,11,35,17.60
2017,06,27,11,36,17.60
2017,06,27,11,37,17.70
2017,06,27,11,38,17.70
2017,06,27,11,39,17.80
2017,06,27,11,40,17.80
2017,06,27,11,41,17.80
2017,06,27,11,42,17.80
2017,06,27,11,43,17.80
2017,06,27,11,44,17.80
2017,06,27,11,45,17.80
2017,06,27,11,46,17.80
2017,06,27,11,47,17.80
2017,06,27,11,48,17.80
2017,06,27,11,49,17.80
2017,06,27,11,50,17.80
2017,06,27,11,51,17.80
2017,06,27,11,52,17.80
2017,06,27,11,53,17.80
2017,06,27,11,54,17.70
2017,06,27,11,55,17.70
2017,06,27,11,56,17.60
2017,06,27,11,57,17.60
2017,06,27,11,58,17.60
2017,06,27,11,59,17.60
2017,06,27,12,00,17.60
2017,06,27,12,01,17.60
2017,06,27,12,02,17.60
2017,06,27,12,03,17.70
2017,06,27,12,04,17.70
2017,06,27,12,05,17.80
2017,06,27,12,06,17.80
2017,06,27,12,07,18.00
2017,06,27,12,08,18.00
2017,06,27,12,09,18.10
2017,06,27,12,10,18.10
2017,06,27,12,11,18.10
2017,06,27,12,12,18.00
2017,06,27,12,13,18.00
2017,06,27,12,14,18.00
2017,06,27,12,15,18.00
2017,06,27,12,16,18.10
2017,06,27,12,17,18.10
2017,06,27,12,18,18.10
2017,06,27,12,19,18.20
2017,06,27,12,20,18.30
2017,06,27,12,21,18.40
2017,06,27,12,22,18.50
2017,06,27,12,23,18.60
2017,06,27,12,24,18.60
2017,06,27,12,25,18.60
2017,06,27,12,26,18.50
2017,06,27,12,27,18.50
2017,06,27,12,28,18.40
2017,06,27,12,29,18.40
2017,06,27,12,30,18.30
2017,06,27,12,31,18.30
2017,06,27,12,32,18.30
2017,06,27,12,33,18.30
2017,06,27,12,34,18.30
2017,06,27,12,35,18.40
2017,06,27,12,36,18.40
2017,06,27,12,37,18.50
2017,06,27,12,38,18.50
2017,06,27,12,39,18.40
2017,06,27,12,40,18.40
2017,06,27,12,41,18.40
2017,06,27,12,42,18.40
2017,06,27,12,43,18.40
2017,06,27,12,44,18.50
2017,06,27,12,45,18.50
2017,06,27,12,46,18.60
2017,06,27,12,47,18.60
2017,06,27,12,48,18.70
2017,06,27,12,49,18.80
2017,06,27,12,50,18.80
2017,06,27,12,51,18.80
2017,06,27,12,52,18.80
2017,06,27,12,53,18.80
2017,06,27,12,54,18.90
2017,06,27,12,55,19.00
2017,06,27,12,56,19.00
2017,06,27,12,57,19.10
2017,06,27,12,58,19.10
2017,06,27,12,59,19.10
2017,06,27,13,00,19.10
2017,06,27,13,01,19.10
2017,06,27,13,02,19.10
2017,06,27,13,03,19.20
2017,06,27,13,04,19.20
2017,06,27,13,05,19.20
2017,06,27,13,06,19.30
2017,06,27,13,07,19.20
2017,06,27,13,08,19.20
2017,06,27,13,09,19.20
2017,06,27,13,10,19.20
2017,06,27,13,11,19.20
2017,06,27,13,12,19.20
2017,06,27,13,13,19.30
2017,06,27,13,14,19.40
2017,06,27,13,15,19.50
2017,06,27,13,16,19.60
2017,06,27,13,17,19.70
2017,06,27,13,18,19.70
2017,06,27,13,19,19.70
2017,06,27,13,20,19.70
2017,06,27,13,21,19.70
2017,06,27,13,22,19.60
2017,06,27,13,23,19.60
2017,06,27,13,24,19.60
2017,06,27,13,25,19.70
2017,06,27,13,26,19.80
2017,06,27,13,27,19.90
2017,06,27,13,28,20.00
2017,06,27,13,29,20.00
2017,06,27,13,30,20.10
2017,06,27,13,31,20.10
2017,06,27,13,32,20.10
2017,06,27,13,33,20.00
2017,06,27,13,34,20.00
2017,06,27,13,35,19.90
2017,06,27,13,36,20.00
2017,06,27,13,37,20.10
2017,06,27,13,38,20.10
2017,06,27,13,39,20.20
2017,06,27,13,40,20.20
2017,06,27,13,41,20.10
2017,06,27,13,42,20.10
2017,06,27,13,43,20.10
2017,06,27,13,44,20.00
2017,06,27,13,45,19.90
2017,06,27,13,46,19.90
2017,06,27,13,47,19.80
2017,06,27,13,48,19.80
2017,06,27,13,49,19.80
2017,06,27,13,50,19.80
2017,06,27,13,51,19.80
2017,06,27,13,52,19.80
2017,06,27,13,53,19.80
2017,06,27,13,54,19.80
2017,06,27,13,55,19.80
2017,06,27,13,56,19.80
2017,06,27,13,57,19.80
2017,06,27,13,58,19.80
2017,06,27,13,59,19.90
2017,06,27,14,00,19.90
2017,06,27,14,01,19.90
2017,06,27,14,02,20.00
2017,06,27,14,03,20.00
2017,06,27,14,04,20.10
2017,06,27,14,05,20.10
2017,06,27,14,06,20.20
2017,06,27,14,07,20.20
2017,06,27,14,08,20.20
2017,06,27,14,09,20.20
2017,06,27,14,10,20.20
2017,06,27,14,11,20.20
2017,06,27,14,12,20.20
2017,06,27,14,13,20.20
2017,06,27,14,14,20.30
2017,06,27,14,15,20.30
2017,06,27,14,16,20.30
2017,06,27,14,17,20.30
2017,06,27,14,18,20.30
2017,06,27,14,19,20.30
2017,06,27,14,20,20.30
2017,06,27,14,21,20.30
2017,06,27,14,22,20.30
2017,06,27,14,23,20.30
2017,06,27,14,24,20.30
2017,06,27,14,25,20.30
2017,06,27,14,26,20.40
2017,06,27,14,27,20.40
2017,06,27,14,28,20.40
2017,06,27,14,29,20.40
2017,06,27,14,30,20.30
2017,06,27,14,31,20.30
2017,06,27,14,32,20.40
2017,06,27,14,33,20.40
2017,06,27,14,34,20.50
2017,06,27,14,35,20.50
2017,06,27,14,36,20.50
2017,06,27,14,37,20.50
2017,06,27,14,38,20.60
2017,06,27,14,39,20.70
2017,06,27,14,40,20.80
2017,06,27,14,41,20.90
2017,06,27,14,42,21.00
2017,06,27,14,43,21.10
2017,06,27,14,44,21.10
2017,06,27,14,45,21.20
2017,06,27,14,46,21.20
2017,06,27,14,47,21.20
2017,06,27,14,48,21.20
2017,06,27,14,49,21.20
2017,06,27,14,50,21.30
2017,06,27,14,51,21.30
2017,06,27,14,52,21.20
2017,06,27,14,53,21.20
2017,06,27,14,54,21.30
2017,06,27,14,55,21.30
2017,06,27,14,56,21.30
2017,06,27,14,57,21.40
2017,06,27,14,58,21.40
2017,06,27,14,59,21.40
2017,06,27,15,00,21.40
2017,06,27,15,01,21.30
2017,06,27,15,02,21.20
2017,06,27,15,03,21.10
2017,06,27,15,04,21.00
2017,06,27,15,05,21.00
2017,06,27,15,06,21.00
2017,06,27,15,07,21.10
2017,06,27,15,08,21.10
2017,06,27,15,09,21.10
2017,06,27,15,10,21.20
2017,06,27,15,11,21.10
2017,06,27,15,12,21.10
2017,06,27,15,13,21.20
2017,06,27,15,14,21.20
2017,06,27,15,15,21.20
2017,06,27,15,16,21.20
2017,06,27,15,17,21.30
2017,06,27,15,18,21.30
2017,06,27,15,19,21.30
2017,06,27,15,20,21.30
2017,06,27,15,21,21.30
2017,06,27,15,22,21.30
2017,06,27,15,23,21.30
2017,06,27,15,24,21.30
2017,06,27,15,25,21.40
2017,06,27,15,26,21.50
2017,06,27,15,27,21.60
2017,06,27,15,28,21.70
2017,06,27,15,29,21.80
2017,06,27,15,30,21.80
2017,06,27,15,31,21.90
2017,06,27,15,32,21.90
2017,06,27,15,33,21.80
2017,06,27,15,34,21.80
2017,06,27,15,35,21.70
2017,06,27,15,36,21.70
2017,06,27,15,37,21.70
2017,06,27,15,38,21.70
2017,06,27,15,39,21.60
2017,06,27,15,40,21.60
2017,06,27,15,41,21.50
2017,06,27,15,42,21.50
2017,06,27,15,43,21.40
2017,06,27,15,44,21.40
2017,06,27,15,45,21.20
2017,06,27,15,46,21.10
2017,06,27,15,47,21.10
2017,06,27,15,48,21.10
2017,06,27,15,49,21.00
2017,06,27,15,50,21.00
2017,06,27,15,51,21.00
2017,06,27,15,52,21.00
2017,06,27,15,53,21.00
2017,06,27,15,54,21.10
2017,06,27,15,55,21.10
2017,06,27,15,56,21.10
2017,06,27,15,57,21.20
2017,06,27,15,58,21.30
2017,06,27,15,59,21.30
2017,06,27,16,00,21.30
2017,06,27,16,01,21.30
2017,06,27,16,02,21.30
2017,06,27,16,03,21.20
2017,06,27,16,04,21.20
2017,06,27,16,05,21.20
2017,06,27,16,06,21.20
2017,06,27,16,07,21.20
2017,06,27,16,08,21.30
2017,06,27,16,09,21.30
2017,06,27,16,10,21.20
2017,06,27,16,11,21.20
2017,06,27,16,12,21.30
2017,06,27,16,13,21.30
2017,06,27,16,14,21.30
2017,06,27,16,15,21.30
2017,06,27,16,16,21.30
2017,06,27,16,17,21.30
2017,06,27,16,18,21.30
2017,06,27,16,19,21.40
2017,06,27,16,20,21.40
2017,06,27,16,21,21.40
2017,06,27,16,22,21.50
2017,06,27,16,23,21.60
2017,06,27,16,24,21.60
2017,06,27,16,25,21.60
2017,06,27,16,26,21.70
2017,06,27,16,27,21.70
2017,06,27,16,28,21.70
2017,06,27,16,29,21.70
2017,06,27,16,30,21.70
2017,06,27,16,31,21.70
2017,06,27,16,32,21.70
2017,06,27,16,33,21.70
2017,06,27,16,34,21.70
2017,06,27,16,35,21.60
2017,06,27,16,36,21.60
2017,06,27,16,37,21.50
2017,06,27,16,38,21.50
2017,06,27,16,39,21.50
2017,06,27,16,40,21.50
2017,06,27,16,41,21.50
2017,06,27,16,42,21.60
2017,06,27,16,43,21.70
2017,06,27,16,44,21.70
2017,06,27,16,45,21.70
2017,06,27,16,46,21.70
2017,06,27,16,47,21.70
2017,06,27,16,48,21.70
2017,06,27,16,49,21.70
2017,06,27,16,50,21.60
2017,06,27,16,51,21.60
2017,06,27,16,52,21.50
2017,06,27,16,53,21.50
2017,06,27,16,54,21.50
2017,06,27,16,55,21.50
2017,06,27,16,56,21.50
2017,06,27,16,57,21.40
2017,06,27,16,58,21.40
2017,06,27,16,59,21.40
2017,06,27,17,00,21.40
2017,06,27,17,01,21.30
2017,06,27,17,02,21.30
2017,06,27,17,03,21.20
2017,06,27,17,04,21.20
2017,06,27,17,05,21.20
2017,06,27,17,06,21.30
2017,06,27,17,07,21.30
2017,06,27,17,08,21.30
2017,06,27,17,09,21.40
2017,06,27,17,10,21.40
2017,06,27,17,11,21.40
2017,06,27,17,12,21.40
2017,06,27,17,13,21.40
2017,06,27,17,14,21.40
2017,06,27,17,15,21.30
2017,06,27,17,16,21.30
2017,06,27,17,17,21.20
2017,06,27,17,18,21.20
2017,06,27,17,19,21.30